Location: Sternwarte_Laufen
(47.9344°N, 12.9346°E)
Time: 05:42:24
(UTC+02:00)

Amateur Radio Satellites - All Passes

Search period start: 26 September 2017 05:12
Search period end: 27 September 2017 05:12
Location: Sternwarte_Laufen, 47.9344°N, 12.9346°E

Satellite Date Start Highest point End Downlink Frequencies (MHz)
Time Altitude Azimuth
Gurwin Techsat 1B 26 Sep 05:27:46 05:28:50 11° 310° (NW) 05:29:52 435.225
KKS-1 26 Sep 05:30:35 05:34:58 66° 258° (WSW) 05:39:23 437.445
DOVE 4 26 Sep 05:41:26 05:44:55 24° 94° (E) 05:48:30 437.250
STARS 26 Sep 05:47:53 05:52:14 82° 74° (ENE) 05:56:38 437.465
CUBESAT XI-V 26 Sep 06:03:36 06:06:19 15° 271° (W) 06:09:02 437.345
BEESAT 2 26 Sep 06:22:54 06:24:45 13° 250° (WSW) 06:26:36 435.950
AO-85 26 Sep 06:24:13 06:26:52 15° 248° (WSW) 06:29:38 145.980
XW-2D 26 Sep 06:29:51 06:32:46 20° 93° (E) 06:35:38 145.860 - 145.880
ITAMSAT 1 26 Sep 06:31:21 06:35:08 21° 302° (WNW) 06:38:55 435.822/435.867
XW-2F 26 Sep 06:40:04 06:43:12 24° 94° (E) 06:46:18 145.980 - 146.000
XW-2B 26 Sep 06:42:02 06:45:18 26° 95° (E) 06:48:32 145.730 - 145.750
AO-7 26 Sep 06:42:46 06:50:01 35° 307° (NW) 06:57:15 .
RS-15 26 Sep 06:45:20 06:57:43 79° 311° (NW) 07:10:04 29.354- 29.394
STRAND 1 26 Sep 06:52:58 06:57:38 38° 66° (ENE) 07:02:21 437.568
NUDT-PHONESAT 26 Sep 06:54:54 06:58:07 27° 95° (E) 07:01:18 437.300
CUTE-I 26 Sep 06:56:48 07:01:40 35° 96° (E) 07:06:31 437.470
XW-2C 26 Sep 07:03:15 07:06:57 46° 99° (E) 07:10:36 145.795 - 145.815
LilacSat-2 26 Sep 07:18:32 07:22:23 76° 102° (ESE) 07:26:11 437.200
DOVE 4 26 Sep 07:18:49 07:22:44 37° 291° (WNW) 07:26:48 437.250
HO-68 26 Sep 07:21:14 07:27:05 26° 92° (E) 07:32:54 435.675
KAITUO 1B 26 Sep 07:27:09 07:30:53 66° 101° (E) 07:34:36 145.475/437.950
STARS 26 Sep 07:27:38 07:29:10 12° 272° (W) 07:30:41 437.465
CUBEBUG 2 26 Sep 07:53:15 07:57:04 24° 92° (E) 08:00:55 437.445
UWE-3 26 Sep 07:55:33 07:58:20 15° 88° (E) 08:01:06 435.000/436.395/437.385
SEEDS 26 Sep 08:00:35 08:04:10 27° 94° (E) 08:07:43 437.485
XW-2A 26 Sep 08:03:17 08:05:37 17° 92° (E) 08:07:56 145.665 - 145.685
XW-2D 26 Sep 08:03:33 08:07:03 34° 291° (WNW) 08:10:30 145.860 - 145.880
FO-29 26 Sep 08:07:12 08:11:32 25° 62° (ENE) 08:15:44 435.910
XW-2F 26 Sep 08:14:00 08:17:19 29° 292° (WNW) 08:20:37 145.980 - 146.000
AAUSAT CUBESAT 2 26 Sep 08:15:55 08:18:49 18° 91° (E) 08:21:41 437.432
XW-2B 26 Sep 08:16:11 08:19:26 27° 293° (WNW) 08:22:40 145.730 - 145.750
NUDT-PHONESAT 26 Sep 08:28:47 08:31:55 26° 293° (WNW) 08:35:01 437.300
Oscar 11 26 Sep 08:30:21 08:31:22 11° 86° (E) 08:32:24 .
STRAND 1 26 Sep 08:32:19 08:36:52 32° 265° (W) 08:41:28 437.568
AO-73 26 Sep 08:32:38 08:35:44 18° 90° (E) 08:38:48 145.935
CUTE 1.7 + AOD 2 26 Sep 08:33:15 08:37:31 88° 284° (WNW) 08:41:44 437.475
ZACube-1 26 Sep 08:36:46 08:40:19 22° 91° (E) 08:43:49 437.345
CUTE-I 26 Sep 08:36:50 08:41:44 38° 295° (WNW) 08:46:38 437.470
AO-7 26 Sep 08:38:02 08:40:21 11° 331° (NNW) 08:42:40 .
XW-2C 26 Sep 08:38:18 08:40:47 17° 297° (WNW) 08:43:16 145.795 - 145.815
LilacSat-2 26 Sep 08:54:43 08:56:05 12° 301° (WNW) 08:57:27 437.200
RS-15 26 Sep 09:00:58 09:12:23 40° 340° (NNW) 09:23:36 29.354- 29.394
KAITUO 1B 26 Sep 09:02:45 09:04:22 12° 300° (WNW) 09:05:59 145.475/437.950
HO-68 26 Sep 09:08:16 09:15:26 72° 291° (WNW) 09:22:35 435.675
CUBEBUG 2 26 Sep 09:29:21 09:33:52 46° 290° (WNW) 09:38:23 437.445
UWE-3 26 Sep 09:30:35 09:35:15 70° 286° (WNW) 09:39:54 435.000/436.395/437.385
UNISAT 6 26 Sep 09:30:46 09:34:53 40° 69° (ENE) 09:39:07 437.425
XW-2A 26 Sep 09:35:18 09:38:28 34° 290° (WNW) 09:41:34 145.665 - 145.685
SEEDS 26 Sep 09:36:08 09:39:52 32° 293° (WNW) 09:43:34 437.485
PRISM 26 Sep 09:40:36 09:44:05 28° 66° (ENE) 09:47:34 437.425
AAUSAT CUBESAT 2 26 Sep 09:50:34 09:54:30 45° 289° (WNW) 09:58:25 437.432
FO-29 26 Sep 09:51:04 09:56:27 51° 260° (W) 10:01:32 435.910
Max Valier Satellite 26 Sep 09:51:45 09:53:19 12° 89° (E) 09:54:53 145.860
TIGRISAT 26 Sep 09:53:27 09:57:45 62° 72° (ENE) 10:02:13 435.000
Oscar 11 26 Sep 10:03:46 10:08:09 87° 282° (WNW) 10:12:28 .
AO-73 26 Sep 10:07:49 10:12:20 58° 288° (WNW) 10:16:48 145.935
CUTE 1.7 + AOD 2 26 Sep 10:11:14 10:12:40 11° 303° (WNW) 10:14:04 437.475
ZACube-1 26 Sep 10:12:23 10:16:49 48° 290° (WNW) 10:21:13 437.345
AIST 2D 26 Sep 10:21:33 10:23:34 15° 63° (ENE) 10:25:34 435.315
NANOSAT C BR1 26 Sep 10:40:58 10:42:34 12° 57° (ENE) 10:44:10 145.865
EO-88 26 Sep 10:44:55 10:48:19 35° 97° (E) 10:51:40 145.990 - 145.960
DELFI C3 26 Sep 10:54:07 10:58:03 82° 103° (ESE) 11:01:58 145.870
HO-68 26 Sep 10:57:23 11:02:00 19° 313° (NW) 11:06:38 435.675
M-CUBED/EXP-1 PRIME 26 Sep 11:04:01 11:05:00 11° 53° (NE) 11:05:59 437.505
YUBILEINY 26 Sep 11:05:34 11:11:41 22° 76° (ENE) 11:17:48 435.215
DUCHIFAT 1 26 Sep 11:06:22 11:09:14 18° 62° (ENE) 11:12:08 145.980
UNISAT 6 26 Sep 11:08:12 11:11:45 24° 267° (W) 11:15:24 437.425
UWE-3 26 Sep 11:09:37 11:10:50 11° 305° (NW) 11:12:04 435.000/436.395/437.385
PRISM 26 Sep 11:15:40 11:19:17 30° 264° (W) 11:22:55 437.425
RS-15 26 Sep 11:17:42 11:28:54 38° 14° (NNE) 11:39:40 29.354- 29.394
POLYITAN 1 26 Sep 11:23:15 11:27:00 32° 67° (ENE) 11:30:47 437.675
Max Valier Satellite 26 Sep 11:23:49 11:27:31 59° 287° (WNW) 11:31:11 145.860
EO-79 26 Sep 11:26:40 11:30:28 34° 68° (ENE) 11:34:19 145.935-145.965
O/OREOS (USA 219) 26 Sep 11:28:28 11:32:57 48° 59° (ENE) 11:37:25 437.305
TIGRISAT 26 Sep 11:32:14 11:34:54 16° 271° (W) 11:37:37 435.000
LO-87 26 Sep 11:32:53 11:35:27 18° 93° (E) 11:38:01 145.935 - 145.965
QB50P2 26 Sep 11:40:57 11:45:03 52° 71° (ENE) 11:49:11 145.880/145.840
Oscar 11 26 Sep 11:41:59 11:43:34 12° 303° (WNW) 11:45:09 .
Oscar 19 26 Sep 11:47:26 11:48:57 11° 51° (NE) 11:50:30 437.125/150
AIST 2D 26 Sep 11:52:56 11:56:23 48° 261° (W) 11:59:51 435.315
NANOSAT C BR1 26 Sep 12:13:24 12:17:36 89° 254° (WSW) 12:21:52 145.865
AO-7 26 Sep 12:16:00 12:17:57 11° 28° (NNE) 12:19:54 .
EO-88 26 Sep 12:19:03 12:21:46 20° 295° (WNW) 12:24:27 145.990 - 145.960
NO-84 26 Sep 12:20:02 12:23:10 23° 134° (SE) 12:26:07 435.350 FM
DELFI C3 26 Sep 12:30:57 12:32:13 11° 301° (WNW) 12:33:28 145.870
SPROUT 26 Sep 12:32:21 12:34:58 16° 90° (E) 12:37:34 437.525
M-CUBED/EXP-1 PRIME 26 Sep 12:34:44 12:38:54 82° 69° (ENE) 12:42:46 437.505
ESTCUBE 1 26 Sep 12:36:39 12:41:08 61° 101° (E) 12:45:34 437.505/2401.250
DUCHIFAT 1 26 Sep 12:40:26 12:44:31 53° 260° (W) 12:48:40 145.980
VELOX 1 26 Sep 12:54:06 12:57:14 19° 92° (E) 13:00:21 145.980
YUBILEINY 26 Sep 12:58:34 13:07:17 89° 278° (W) 13:16:03 435.215
POLYITAN 1 26 Sep 12:59:08 13:02:47 28° 265° (W) 13:06:29 437.675
EO-79 26 Sep 13:02:45 13:06:17 26° 266° (W) 13:09:52 145.935-145.965
BUGSAT 1 26 Sep 13:04:29 13:08:30 80° 73° (ENE) 13:12:37 437.445
LO-87 26 Sep 13:05:40 13:08:59 35° 290° (WNW) 13:12:19 145.935 - 145.965
O/OREOS (USA 219) 26 Sep 13:08:30 13:12:03 22° 258° (WSW) 13:15:36 437.305
QB50P2 26 Sep 13:18:19 13:21:09 17° 269° (W) 13:24:00 145.880/145.840
Oscar 19 26 Sep 13:22:09 13:27:16 62° 71° (ENE) 13:32:25 437.125/150
Gurwin Techsat 1B 26 Sep 13:29:41 13:34:47 51° 69° (ENE) 13:39:56 435.225
RS-15 26 Sep 13:31:44 13:43:54 71° 45° (NE) 13:55:23 29.354- 29.394
SO-50 26 Sep 13:35:12 13:39:07 30° 117° (ESE) 13:43:02 436.795
UKube-1 26 Sep 13:43:03 13:43:42 10° 87° (E) 13:44:21 .
PCSat 26 Sep 13:52:56 13:57:11 24° 109° (ESE) 14:01:28 145.827
DX 1 26 Sep 13:53:42 13:57:01 21° 93° (E) 14:00:18 434.975-435.025
50 SAT 26 Sep 13:55:27 13:58:11 23° 96° (E) 14:00:53 437.505
NO-84 26 Sep 13:56:34 14:00:21 68° 330° (NNW) 14:03:51 435.350 FM
AO-7 26 Sep 14:01:02 14:08:13 34° 52° (NE) 14:15:23 .
SPROUT 26 Sep 14:07:00 14:11:14 59° 288° (WNW) 14:15:28 437.525
M-CUBED/EXP-1 PRIME 26 Sep 14:12:46 14:13:42 11° 264° (W) 14:14:38 437.505
ESTCUBE 1 26 Sep 14:14:27 14:17:29 18° 300° (WNW) 14:20:31 437.505/2401.250
VELOX 1 26 Sep 14:29:42 14:33:57 50° 290° (WNW) 14:38:12 145.980
ITAMSAT 1 26 Sep 14:34:31 14:38:34 24° 60° (ENE) 14:42:39 435.822/435.867
BUGSAT 1 26 Sep 14:43:38 14:44:27 10° 273° (W) 14:45:15 437.445
YUBILEINY 26 Sep 14:58:46 15:05:25 24° 302° (WNW) 15:12:07 435.215
Oscar 19 26 Sep 15:03:11 15:07:01 20° 269° (W) 15:10:51 437.125/150
ITUPSAT 1 26 Sep 15:05:05 15:06:03 11° 86° (E) 15:07:03 437.325
Gurwin Techsat 1B 26 Sep 15:10:38 15:15:00 26° 267° (W) 15:19:24 435.225
SO-50 26 Sep 15:15:09 15:19:26 43° 316° (NW) 15:23:46 436.795
UKube-1 26 Sep 15:16:01 15:20:21 89° 297° (WNW) 15:24:40 .
50 SAT 26 Sep 15:27:55 15:30:36 23° 293° (WNW) 15:33:16 437.505
DX 1 26 Sep 15:29:16 15:33:25 44° 291° (WNW) 15:37:32 434.975-435.025
PCSat 26 Sep 15:34:48 15:40:10 63° 308° (NW) 15:45:35 145.827
NO-84 26 Sep 15:35:05 15:38:10 26° 350° (N) 15:41:02 435.350 FM
BEESAT 26 Sep 15:37:28 15:41:14 22° 93° (E) 15:44:59 436.000
MOZHAYETS 4 26 Sep 15:43:03 15:46:56 26° 93° (E) 15:50:47
RS-15 26 Sep 15:44:54 15:55:42 43° 251° (WSW) 16:06:00 29.354- 29.394
AO-7 26 Sep 15:52:07 16:00:25 72° 254° (WSW) 16:08:46 .
ITAMSAT 1 26 Sep 16:12:37 16:17:41 56° 259° (W) 16:22:48 435.822/435.867
CUBESAT XI-V 26 Sep 16:18:19 16:20:39 14° 88° (E) 16:22:58 437.345
ITUPSAT 1 26 Sep 16:39:48 16:44:40 81° 104° (ESE) 16:49:29 437.325
CUTE-I 26 Sep 16:45:19 16:48:04 14° 53° (NE) 16:50:48 437.470
DOVE 4 26 Sep 16:50:16 16:54:10 35° 69° (ENE) 16:57:59 437.250
UKube-1 26 Sep 16:54:00 16:55:42 12° 304° (WNW) 16:57:24 .
SO-50 26 Sep 16:58:44 17:01:03 14° 339° (NNW) 17:03:23 436.795
NO-84 26 Sep 17:13:20 17:16:16 27° 11° (NNE) 17:18:59 435.350 FM
XW-2D 26 Sep 17:14:34 17:17:14 18° 64° (ENE) 17:19:54 145.860 - 145.880
BEESAT 26 Sep 17:14:38 17:19:16 49° 291° (WNW) 17:23:52 436.000
KKS-1 26 Sep 17:18:40 17:21:46 18° 92° (E) 17:24:51 437.445
MOZHAYETS 4 26 Sep 17:19:52 17:24:13 40° 292° (WNW) 17:28:32
PCSat 26 Sep 17:21:00 17:24:40 18° 331° (NNW) 17:28:21 145.827
XW-2F 26 Sep 17:24:15 17:27:08 21° 65° (ENE) 17:30:03 145.980 - 146.000
XW-2B 26 Sep 17:26:34 17:29:37 23° 66° (ENE) 17:32:41 145.730 - 145.750
STARS 26 Sep 17:35:46 17:37:12 11° 88° (E) 17:38:37 437.465
NUDT-PHONESAT 26 Sep 17:37:21 17:40:16 22° 65° (ENE) 17:43:11 437.300
XW-2C 26 Sep 17:47:28 17:51:02 37° 70° (ENE) 17:54:37 145.795 - 145.815
AO-7 26 Sep 17:50:00 17:54:40 16° 274° (W) 17:59:23 .
HO-68 26 Sep 17:53:56 17:59:55 30° 55° (NE) 18:05:55 435.675
CUBESAT XI-V 26 Sep 17:53:57 17:58:35 76° 286° (WNW) 18:03:10 437.345
CUTE 1.7 + AOD 2 26 Sep 17:55:47 17:57:45 13° 59° (ENE) 17:59:43 437.475
LilacSat-2 26 Sep 18:03:11 18:07:00 60° 73° (ENE) 18:10:51 437.200
KAITUO 1B 26 Sep 18:09:53 18:13:34 49° 72° (ENE) 18:17:15 145.475/437.950
ITUPSAT 1 26 Sep 18:18:58 18:21:52 16° 303° (WNW) 18:24:47 437.325
CUTE-I 26 Sep 18:21:58 18:27:16 78° 72° (ENE) 18:32:36 437.470
BEESAT 3 26 Sep 18:25:49 18:27:00 11° 109° (ESE) 18:28:11 437.485
DOVE 4 26 Sep 18:28:25 18:31:58 24° 266° (W) 18:35:26 437.250
XW-2A 26 Sep 18:38:55 18:40:06 11° 61° (ENE) 18:41:18 145.665 - 145.685
Tancredo 1 26 Sep 18:39:29 18:41:22 17° 141° (SE) 18:43:16 437.200
XW-2D 26 Sep 18:47:25 18:51:06 44° 261° (W) 18:54:49 145.860 - 145.880
NO-84 26 Sep 18:50:45 18:53:58 89° 213° (SSW) 18:56:56 435.350 FM
KKS-1 26 Sep 18:54:18 18:58:39 54° 289° (WNW) 19:02:59 437.445
CUBEBUG 2 26 Sep 18:54:41 18:58:21 27° 65° (ENE) 19:02:08 437.445
SEEDS 26 Sep 18:55:16 18:58:57 30° 67° (ENE) 19:02:39 437.485
UWE-3 26 Sep 18:55:51 18:58:52 19° 61° (ENE) 19:01:59 435.000/436.395/437.385
XW-2F 26 Sep 18:57:28 19:01:02 37° 262° (W) 19:04:38 145.980 - 146.000
XW-2B 26 Sep 19:00:07 19:03:38 33° 263° (W) 19:07:10 145.730 - 145.750
AAUSAT CUBESAT 2 26 Sep 19:09:15 19:12:18 20° 64° (ENE) 19:15:21 437.432
STARS 26 Sep 19:09:42 19:14:08 85° 284° (WNW) 19:18:33 437.465
NUDT-PHONESAT 26 Sep 19:10:31 19:13:57 33° 263° (W) 19:17:25 437.300
XW-2C 26 Sep 19:22:29 19:25:21 20° 268° (W) 19:28:14 145.795 - 145.815
nSIGHT-1 26 Sep 19:26:28 19:27:27 11° 134° (SE) 19:28:27 .
Oscar 11 26 Sep 19:27:50 19:30:12 15° 59° (ENE) 19:32:34 .
CUTE 1.7 + AOD 2 26 Sep 19:28:40 19:32:58 83° 259° (W) 19:37:16 437.475
AO-73 26 Sep 19:31:17 19:34:35 21° 62° (ENE) 19:37:57 145.935
CUBESAT XI-V 26 Sep 19:33:38 19:35:08 11° 305° (NW) 19:36:39 437.345
ZACube-1 26 Sep 19:35:42 19:39:18 25° 64° (ENE) 19:42:58 437.345
LilacSat-2 26 Sep 19:39:50 19:41:39 13° 271° (W) 19:43:29 437.200
HO-68 26 Sep 19:40:01 19:47:08 69° 256° (WSW) 19:54:19 435.675
KAITUO 1B 26 Sep 19:45:39 19:47:50 15° 270° (W) 19:50:03 145.475/437.950
BEESAT 3 26 Sep 19:59:51 20:03:53 90° 106° (ESE) 20:07:58 437.485
CUTE-I 26 Sep 20:04:40 20:07:57 16° 271° (W) 20:11:13 437.470
XW-2A 26 Sep 20:08:58 20:12:21 60° 259° (W) 20:15:47 145.665 - 145.685
Tancredo 1 26 Sep 20:12:50 20:15:30 76° 339° (NNW) 20:18:11 437.200
BEESAT 2 26 Sep 20:14:49 20:18:38 43° 121° (ESE) 20:22:31 435.950
SO-50 26 Sep 20:22:36 20:25:50 19° 29° (NNE) 20:29:05 436.795
ISS 26 Sep 20:27:07 20:30:04 31° 144° (SE) 20:33:02 437.550
NO-84 26 Sep 20:29:49 20:30:44 11° 232° (SW) 20:31:39 435.350 FM
UWE-3 26 Sep 20:30:36 20:34:53 57° 260° (W) 20:39:21 435.000/436.395/437.385
SEEDS 26 Sep 20:30:51 20:34:35 30° 265° (W) 20:38:21 437.485
CUBEBUG 2 26 Sep 20:30:54 20:34:50 35° 264° (W) 20:38:57 437.445
Max Valier Satellite 26 Sep 20:35:07 20:35:49 10° 59° (ENE) 20:36:31 145.860
STRAND 1 26 Sep 20:38:19 20:43:28 66° 102° (ESE) 20:48:36 437.568
AO-85 26 Sep 20:40:26 20:44:19 75° 125° (SE) 20:48:18 145.980
AAUSAT CUBESAT 2 26 Sep 20:43:28 20:47:28 45° 262° (W) 20:51:29 437.432
STARS 26 Sep 20:48:04 20:49:46 12° 304° (NW) 20:51:28 437.465
PCSat 26 Sep 20:53:23 20:56:24 15° 24° (NNE) 20:59:24 145.827
FO-29 26 Sep 20:56:02 20:59:24 16° 89° (E) 21:02:57 435.910
nSIGHT-1 26 Sep 21:00:02 21:03:12 60° 152° (SSE) 21:06:25 .
Oscar 11 26 Sep 21:01:24 21:05:46 76° 257° (WSW) 21:10:09 .
AO-73 26 Sep 21:06:13 21:10:28 50° 261° (W) 21:14:52 145.935
YUBILEINY 26 Sep 21:09:27 21:13:43 14° 48° (NE) 21:18:00 435.215
ZACube-1 26 Sep 21:11:15 21:15:22 40° 263° (W) 21:19:37 437.345
EO-88 26 Sep 21:25:48 21:28:54 26° 68° (ENE) 21:32:01 145.990 - 145.960
HO-68 26 Sep 21:32:55 21:36:12 13° 276° (W) 21:39:29 435.675
BEESAT 3 26 Sep 21:39:12 21:42:01 18° 328° (NNW) 21:44:50 437.485
DELFI C3 26 Sep 21:42:12 21:46:07 72° 75° (ENE) 21:50:04 145.870
TIGRISAT 26 Sep 21:43:31 21:44:54 11° 86° (E) 21:46:18 435.000
Tancredo 1 26 Sep 21:47:38 21:50:09 34° 358° (N) 21:52:39 437.200
BEESAT 2 26 Sep 21:53:01 21:56:32 28° 321° (NW) 22:00:06 435.950
SO-50 26 Sep 22:02:27 22:07:03 75° 51° (NE) 22:11:40 436.795
ISS 26 Sep 22:03:09 22:06:25 62° 343° (NNW) 22:09:41 437.550
Max Valier Satellite 26 Sep 22:05:18 22:09:02 83° 258° (WSW) 22:12:48 145.860
ESTCUBE 1 26 Sep 22:05:43 22:07:34 12° 56° (NE) 22:09:23 437.505/2401.250
LO-87 26 Sep 22:13:00 22:14:48 14° 62° (ENE) 22:16:37 145.935 - 145.965
STRAND 1 26 Sep 22:18:25 22:22:10 21° 301° (WNW) 22:25:56 437.568
AO-85 26 Sep 22:22:20 22:25:11 19° 327° (NNW) 22:28:08 145.980
PCSat 26 Sep 22:36:00 22:41:14 45° 47° (NE) 22:46:25 145.827
nSIGHT-1 26 Sep 22:36:30 22:39:38 46° 350° (N) 22:42:48 .
FO-29 26 Sep 22:39:34 22:45:05 85° 286° (WNW) 22:51:15 435.910
PRISM 26 Sep 22:53:02 22:56:30 26° 95° (E) 22:59:56 437.425
UNISAT 6 26 Sep 22:54:50 22:59:28 57° 100° (E) 23:04:06 437.425
EO-88 26 Sep 22:59:24 23:02:31 26° 265° (W) 23:05:39 145.990 - 145.960
YUBILEINY 26 Sep 23:04:23 23:12:57 56° 74° (ENE) 23:21:30 435.215
TIGRISAT 26 Sep 23:17:33 23:22:16 86° 103° (ESE) 23:27:00 435.000
DELFI C3 26 Sep 23:20:15 23:21:21 11° 272° (W) 23:22:29 145.870
Tancredo 1 26 Sep 23:22:10 23:24:50 57° 17° (NNE) 23:27:28 437.200
SPROUT 26 Sep 23:28:51 23:31:52 19° 62° (ENE) 23:34:54 437.525
ESTCUBE 1 26 Sep 23:39:06 23:43:38 84° 75° (ENE) 23:48:11 437.505/2401.250
ISS 26 Sep 23:40:03 23:43:13 41° 3° (N) 23:46:22 437.550
SO-50 26 Sep 23:44:02 23:46:59 17° 248° (WSW) 23:49:56 436.795
LO-87 26 Sep 23:44:22 23:47:49 52° 260° (W) 23:51:19 145.935 - 145.965
VELOX 1 26 Sep 23:54:20 23:58:00 26° 65° (ENE) 00:01:40 145.980
NANOSAT C BR1 26 Sep 23:56:03 23:57:37 12° 88° (E) 23:59:11 145.865
nSIGHT-1 27 Sep 00:13:09 00:16:19 47° 11° (N) 00:19:29 .
PCSat 27 Sep 00:19:38 00:24:32 35° 247° (WSW) 00:29:24 145.827
DUCHIFAT 1 27 Sep 00:21:22 00:24:26 19° 92° (E) 00:27:30 145.980
FO-29 27 Sep 00:26:21 00:29:34 16° 304° (NW) 00:32:55 435.910
PRISM 27 Sep 00:28:11 00:31:46 31° 293° (WNW) 00:35:22 437.425
50 SAT 27 Sep 00:29:01 00:31:02 15° 64° (ENE) 00:33:04 437.505
UNISAT 6 27 Sep 00:32:21 00:35:48 21° 298° (WNW) 00:39:14 437.425
UKube-1 27 Sep 00:39:38 00:42:12 16° 59° (ENE) 00:44:46 .
POLYITAN 1 27 Sep 00:39:39 00:43:39 36° 97° (E) 00:47:36 437.675
EO-79 27 Sep 00:42:56 00:46:57 38° 98° (E) 00:50:58 145.935-145.965
AIST 2D 27 Sep 00:47:20 00:50:50 64° 286° (WNW) 00:54:18 435.315
DX 1 27 Sep 00:52:15 00:55:58 29° 65° (ENE) 00:59:43 434.975-435.025
TIGRISAT 27 Sep 00:55:47 00:58:18 15° 302° (WNW) 01:00:51 435.000
Tancredo 1 27 Sep 00:56:47 00:59:05 25° 216° (SW) 01:01:22 437.200
QB50P2 27 Sep 00:57:39 01:01:56 60° 101° (ESE) 01:06:10 145.880/145.840
YUBILEINY 27 Sep 01:01:39 01:09:27 38° 275° (W) 01:17:16 435.215
SPROUT 27 Sep 01:03:18 01:07:25 50° 260° (W) 01:11:35 437.525
ISS 27 Sep 01:16:38 01:19:56 84° 21° (NNE) 01:23:14 437.550
ESTCUBE 1 27 Sep 01:19:16 01:21:02 12° 273° (W) 01:22:48 437.505/2401.250
NANOSAT C BR1 27 Sep 01:29:35 01:33:52 78° 287° (WNW) 01:38:08 145.865
VELOX 1 27 Sep 01:30:14 01:34:18 37° 262° (W) 01:38:24 145.980
Oscar 19 27 Sep 01:31:21 01:34:33 16° 89° (E) 01:37:42 437.125/150
Gurwin Techsat 1B 27 Sep 01:43:36 01:46:34 15° 87° (E) 01:49:31 435.225
M-CUBED/EXP-1 PRIME 27 Sep 01:44:29 01:47:18 26° 102° (ESE) 01:50:04 437.505
O/OREOS (USA 219) 27 Sep 01:44:46 01:48:34 27° 104° (ESE) 01:52:25 437.305
AO-85 27 Sep 01:49:08 01:49:44 10° 18° (NNE) 01:50:20 145.980
nSIGHT-1 27 Sep 01:49:31 01:52:43 55° 210° (SSW) 01:55:54 .
DUCHIFAT 1 27 Sep 01:56:15 02:00:21 47° 290° (WNW) 02:04:26 145.980
50 SAT 27 Sep 02:00:08 02:03:14 37° 261° (W) 02:06:21 437.505
UKube-1 27 Sep 02:13:26 02:17:43 68° 257° (WSW) 02:22:02 .
ITUPSAT 1 27 Sep 02:13:40 02:17:09 21° 60° (ENE) 02:20:40 437.325
POLYITAN 1 27 Sep 02:15:42 02:19:18 26° 295° (WNW) 02:22:51 437.675
BUGSAT 1 27 Sep 02:17:38 02:21:52 85° 104° (ESE) 02:26:07 437.445
EO-79 27 Sep 02:19:03 02:22:32 24° 296° (WNW) 02:26:00 145.935-145.965
DX 1 27 Sep 02:28:11 02:32:05 32° 263° (W) 02:36:01 434.975-435.025
QB50P2 27 Sep 02:34:30 02:37:16 17° 299° (WNW) 02:40:03 145.880/145.840
BEESAT 3 27 Sep 02:36:20 02:39:43 25° 38° (NE) 02:43:04 437.485
BEESAT 27 Sep 02:46:49 02:51:13 38° 67° (ENE) 02:55:39 436.000
MOZHAYETS 4 27 Sep 02:47:54 02:52:08 37° 67° (ENE) 02:56:25
BEESAT 2 27 Sep 02:52:03 02:54:47 17° 31° (NNE) 02:57:29 435.950
ISS 27 Sep 02:53:35 02:56:06 20° 221° (SW) 02:58:36 437.550
NANOSAT C BR1 27 Sep 03:07:55 03:08:50 11° 304° (NW) 03:09:44 145.865
Oscar 19 27 Sep 03:09:16 03:14:27 76° 288° (WNW) 03:19:35 437.125/150
M-CUBED/EXP-1 PRIME 27 Sep 03:19:04 03:21:41 21° 300° (WNW) 03:24:14 437.505
Gurwin Techsat 1B 27 Sep 03:21:51 03:27:12 85° 289° (WNW) 03:32:32 435.225
O/OREOS (USA 219) 27 Sep 03:23:35 03:27:49 39° 304° (WNW) 03:32:07 437.305
CUBESAT XI-V 27 Sep 03:24:21 03:27:53 22° 62° (ENE) 03:31:26 437.345
AO-85 27 Sep 03:27:36 03:31:26 30° 40° (NE) 03:35:32 145.980
ITUPSAT 1 27 Sep 03:49:51 03:54:34 60° 258° (WSW) 03:59:21 437.325
AO-7 27 Sep 03:50:04 03:57:18 32° 95° (E) 04:04:29 .
BUGSAT 1 27 Sep 03:54:46 03:56:37 13° 302° (WNW) 03:58:27 437.445
RS-15 27 Sep 04:00:53 04:10:38 29° 102° (ESE) 04:20:22 29.354- 29.394
BEESAT 3 27 Sep 04:13:38 04:17:30 48° 238° (WSW) 04:21:16 437.485
KKS-1 27 Sep 04:19:44 04:23:25 26° 64° (ENE) 04:27:07 437.445
ITAMSAT 1 27 Sep 04:21:47 04:26:40 38° 98° (E) 04:31:31 435.822/435.867
BEESAT 27 Sep 04:24:57 04:29:04 29° 265° (W) 04:33:14 436.000
MOZHAYETS 4 27 Sep 04:25:21 04:29:21 28° 266° (W) 04:33:23
BEESAT 2 27 Sep 04:29:04 04:33:09 83° 52° (NE) 04:37:10 435.950
STARS 27 Sep 04:34:58 04:37:47 17° 60° (ENE) 04:40:38 437.465
Oscar 19 27 Sep 04:50:29 04:52:55 13° 307° (NW) 04:55:21 437.125/150
CUBESAT XI-V 27 Sep 05:00:19 05:04:55 53° 260° (W) 05:09:32 437.345
Gurwin Techsat 1B 27 Sep 05:03:21 05:06:23 16° 306° (NW) 05:09:26 435.225
